Location: Appletree Creek
(38.7363°N, 122.6833°W)
Time: 08:27:37
(UTC+00:00)

Cosmos 1707 Rocket - Pass Details

Date: 18 September 2020
Orbit: 606 x 630 km, 82.5° (Epoch: 22 October)

Event Time Altitude Azimuth Distance (km) Brightness Sun altitude
Rises 12:46:40 0° 191° (S) 2,847 6.7 -14.1°
Reaches altitude 10° 12:48:53 10° 193° (SSW) 1,947 5.9 -13.7°
Maximum altitude 12:53:10 72° 278° (W) 640 3.4 -12.9°
Drops below altitude 10° 12:57:31 10° 3° (N) 1,966 6.3 -12.0°
Sets 12:59:45 0° 6° (N) 2,877 7.2 -11.6°
